Miscellaneous Local Product
Issued by NWS North Platte, NE

Home | Current Version | Previous Version | Text Only | Print | Product List | Glossary On
Versions: 1 2 3 4 5 6 7 8 9 10 11 12 13 14 15 16 17 18 19 20 21 22 23 24 25 26 27 28 29 30 31 32 33 34 35 36 37 38 39 40 41 42 43 44 45 46 47 48 49 50
258
AXUS43 KLBF 060810
MISLBF


WESTERN AND NORTH CENTRAL NEBRASKA HOURLY WEATHER ROUNDUP
NATIONAL WEATHER SERVICE NORTH PLATTE NE
200 AM CST TUE DEC 06 2016

NOTE: "FAIR" INDICATES FEW OR NO CLOUDS BELOW 12,000 FEET WITH NO
SIGNIFICANT WEATHER AND/OR OBSTRUCTIONS TO VISIBILITY.

NOTE: STATIONS NOT REPORTING VARIABLES SUCH AS SKY/WEATHER OR
PRESSURE ARE PROVIDED BY RAWS AND APRS NETWORKS AND ARE NOT UNDER
NATIONAL WEATHER SERVICE QUALITY CONTROL.

...OBSERVATIONS IN AND NEAR THE EASTERN PANHANDLE OF NEBRASKA...

CITY           SKY/WX    TMP DP  RH WIND       PRES   REMARKS
PINE RIDGE     CLEAR     11   5  77 W6        29.94R WCI   1
CHADRON        CLEAR     15   5  64 W14       30.00R WCI   0
ALLIANCE       CLEAR     14   4  64 NW18G26   29.93R WCI  -3
SIDNEY         CLEAR     14   4  64 NW15      29.97S WCI  -1
CRESCENT LAKE    N/A     14   4  64 NW9         N/A  WCI   2
$$

...OBSERVATIONS IN NORTHERN NEBRASKA AND FAR SOUTHERN SOUTH DAKOTA...

CITY           SKY/WX    TMP DP  RH WIND       PRES   REMARKS
WINNER         FAIR      16   8  71 W9        29.92R WCI   4
VALENTINE      CLEAR     15   7  70 W17       29.93S WCI  -1
THEDFORD       FLURRIES  22  17  83 NW5       29.94R WCI  15
AINSWORTH      CLEAR     17  10  74 W13       29.94R WCI   3
O`NEILL        CLEAR     19  11  69 NW16G22   29.93R WCI   5
ORD            PTCLDY    23   9  55 NW20G30   29.95R WCI   8
BROKEN BOW     PTCLDY    22  14  71 NW12      29.94S WCI  10
VALENTINE NWR    N/A     18   8  65 NW12G20     N/A  WCI   6
BUTTE            N/A     17   9  70 W24G32      N/A  WCI  -1
HALSEY           N/A     18  12  76 W6          N/A  WCI  10
CHAMBERS         N/A     19   6  55 N3          N/A
EWING            N/A     21  12  68 NW10G17     N/A  WCI  10
$$

...OBSERVATIONS IN SOUTHWEST NEBRASKA AND FAR NORTHEAST COLORADO...

CITY           SKY/WX    TMP DP  RH WIND       PRES   REMARKS
HOLYOKE        FAIR      21  10  63 NW10      30.00S WCI  10
IMPERIAL       CLEAR     19   9  65 NW9       29.99S WCI   8
OGALLALA       PTCLDY    19  10  69 W10       29.98S WCI   7
NORTH PLATTE   PTCLDY    22  12  65 W16       29.97R WCI   8
MCCOOK         CLEAR     22  11  62 NW12      29.99R WCI  10
LEXINGTON      MOCLDY    25  17  71 NW8       29.97R WCI  16
STAPLETON        N/A     19  13  76 CALM        N/A
GOTHENBURG       N/A     24  13  63 NW12        N/A  WCI  13
CALLAWAY         N/A     21  16  81 NW12        N/A  WCI   9
$$

...OBSERVATIONS IN CENTRAL LINCOLN COUNTY AREA...

CITY           SKY/WX    TMP DP  RH WIND       PRES   REMARKS
N.P. AIRPORT   PTCLDY    22  12  65 W16       29.97R WCI   8
N.P. DOWNTOWN    N/A     21  13  70 W6          N/A  WCI  13
N.P. SOUTHEAST   N/A     21  11  66 NW5G14      N/A  WCI  15
N.P. HILLCREST   N/A     19  13  76 NW10        N/A  WCI   7
$$

...SOME OBSERVATIONS FROM AROUND THE REGION...

CITY           SKY/WX    TMP DP  RH WIND       PRES   REMARKS
LARAMIE        CLEAR      4 -10  52 NW13      29.84F WCI -13
CHEYENNE       CLEAR     11  -7  44 W18G25    29.88S WCI  -7
DENVER         CLEAR     13  -7  40 NE7       29.93R WCI   3
AKRON          CLEAR     12   6  77 NW10      29.96S WCI  -1
SCOTTSBLUFF    CLEAR     13   3  64 NW10      29.98S WCI   0
RAPID CITY     CLEAR     17   1  49 NW14      29.90R WCI   3
BISMARCK       SNOW      14  12  92 NW31G44   29.70R VSB 1/2 WCI  -7
PIERRE         CLOUDY    15   7  70 NW30G44   29.88S WCI  -5
SIOUX FALLS    PTCLDY    18  11  74 W22G35    29.83R WCI   1
OMAHA          CLOUDY    31  22  69 NW22      29.92R WCI  18
GRAND ISLAND   CLOUDY    27  15  61 NW17      29.95S WCI  14
KANSAS CITY    CLOUDY    36  31  82 NW5       29.79R WCI  32
WICHITA        MOCLDY    38  32  79 N24G32    29.86R WCI  27
OKLAHOMA CITY  CLOUDY    45  43  93 N5        29.77R
DALLAS         CLOUDY    50  47  89 S10       29.71S
AMARILLO       CLOUDY    32  14  47 N29G38    29.89R WCI  18
DODGE CITY     CLEAR     28  18  66 N18       29.92R WCI  15
HAYS           CLEAR     29  18  63 N21       29.95R WCI  16
GOODLAND       CLEAR     17   8  67 N13       29.97R WCI   4
$$




USA.gov is the U.S. government's official web portal to all federal, state and local government web resources and services.